Home   Weather   Berlevåg   Past weeks
Flag for Norway

Past Weather in Berlevåg, Norway — Yesterday and Last 2 Weeks

Now
29 °F

Chilly.


Feels Like: 23 °F
Forecast: 36 / 32 °F
Wind: 6 mph from Southwest

Location: Berlevag

Current Time: Oct 15, 2019 at 3:26:27 am

Latest Report: Oct 15, 2019 at 2:00 am


Visibility: N/A

Pressure: 29.94 "Hg

Humidity: 93%

Dew Point: 27 °F

Location of BerlevågLocation

Past Weather in Berlevåg — Graph

°F

Berlevåg Temperature Yesterday

Maximum temperature yesterday: 34 °F (at 12:00 am)
Minimum temperature yesterday: 28 °F (at 6:00 pm)
Average temperature yesterday: 32 °F

High & Low Weather Summary for the Past Weeks

 TemperatureHumidityPressure
High43 °F (Sep 30, 11:00 pm)95% (Oct 11, 5:00 am)30.17 "Hg (Oct 11, 5:00 am)
Low28 °F (Oct 14, 6:00 pm)59% (Oct 2, 3:00 pm)29.38 "Hg (Sep 30, 4:00 am)
Average38 °F84%29.78 "Hg
* Reported Sep 30 2:00 am — Oct 15 2:00 am, Berlevåg. Weather by CustomWeather, © 2019

Note: Actual official high and low records may vary slightly from our data, if they occured in-between our weather recording intervals... More about our weather records

Advertising

Berlevåg Weather History for the Previous 24 Hours

Scroll right to see more
 ConditionsComfort  
Time TempWeatherWind HumidityBarometerVisibility
2:00 am
Tue, Oct 15
29 °FChilly.6 mph93%29.94 "HgN/A
1:00 am30 °FChilly.6 mph92%29.93 "HgN/A
12:00 am30 °FChilly.5 mph93%29.92 "HgN/A
11:00 pm
Mon, Oct 14
30 °FChilly.5 mph92%29.92 "HgN/A
10:00 pm31 °FChilly.5 mph92%29.91 "HgN/A
9:00 pm32 °FChilly.2 mph92%29.91 "HgN/A
8:00 pm30 °FChilly.5 mph91%29.90 "HgN/A
7:00 pm29 °FChilly.6 mph91%29.89 "HgN/A
6:00 pm28 °FChilly.3 mph91%29.88 "HgN/A
5:00 pm30 °FChilly.5 mph91%29.88 "HgN/A
4:00 pm31 °FChilly.5 mph90%29.88 "HgN/A
3:00 pm32 °FChilly.5 mph89%29.87 "HgN/A
2:00 pm33 °FChilly.5 mph90%29.86 "HgN/A
1:00 pm32 °FChilly.6 mph90%29.86 "HgN/A
12:00 pm31 °FChilly.6 mph90%29.86 "HgN/A
11:00 am31 °FChilly.6 mph90%29.85 "HgN/A
10:00 am31 °FChilly.5 mph89%29.84 "HgN/A
9:00 am31 °FChilly.5 mph87%29.83 "HgN/A
8:00 am31 °FChilly.5 mph88%29.83 "HgN/A
7:00 am31 °FChilly.6 mph90%29.82 "HgN/A
6:00 am33 °FChilly.3 mph92%29.82 "HgN/A
5:00 am33 °FChilly.3 mph89%29.81 "HgN/A
4:00 am33 °FChilly.3 mph93%29.81 "HgN/A
3:00 am34 °FChilly.3 mph94%29.80 "HgN/A
Weather by CustomWeather, © 2019

See weather overview